Location: Bastrop State Park
(30.1090°N, 97.2819°W)
Time: 17:49:36
(UTC-05:00)

Daily predictions for brighter satellites

Satellite Brightness Start Highest point End
(mag) Time Altitude Azimuth Time Altitude Azimuth Time Altitude Azimuth
Cosmos 1943 Rocket 3.7 20:45:53 10° SE 20:48:42 14° E 20:51:31 10° ENE
Delta 2 Rocket 4.2 20:43:54 10° W 20:50:03 65° S 20:57:11 10° E
ALOS 3.5 20:45:51 10° S 20:50:18 44° W 20:54:46 10° NNW
Cosmos 2034 Rocket 4.1 20:47:41 10° N 20:53:44 55° E 20:59:43 10° SSE
Envisat 3.7 20:54:22 10° SE 20:58:55 35° ENE 21:03:30 10° N
Tiangong 2 3.7 20:57:54 10° NNW 20:59:39 14° NNE 21:01:23 10° NE
Cosmos 1464 Rocket 4.1 20:53:43 10° N 21:00:05 89° E 21:06:28 10° S
CENTAUR R/B 3.0 20:55:25 10° S 21:00:23 31° ESE 21:05:48 10° NE
Cosmos 990 Rocket 3.9 20:56:20 10° S 21:01:29 75° ESE 21:06:42 10° NNE
Cosmos 1898 Rocket 4.2 20:56:41 10° SSW 21:01:53 62° WNW 21:07:10 10° N
CZ-3A R/B 2.5 20:54:44 10° WSW 21:02:26 34° S 21:04:45 11° ESE
Cosmos 2112 Rocket 4.3 20:59:01 10° NNW 21:04:22 77° WSW 21:09:42 10° S
Molniya-1 2.9 21:02:25 10° SSW 21:04:38 39° ESE 21:06:20 10° NE
Cosmos 2242 Rocket 3.5 21:00:43 10° N 21:05:10 74° E 21:09:34 10° S
COSMOS 2455 2.9 21:00:01 10° S 21:05:53 60° ESE 21:11:47 10° NNE
Cosmos 1680 Rocket 4.1 21:01:00 10° NNW 21:06:15 61° WSW 21:11:27 10° S
Cosmos 1933 Rocket 3.5 21:03:14 10° S 21:07:33 88° E 21:11:55 10° N
SJ-6B 4.4 21:04:34 10° SSW 21:08:01 35° W 21:11:32 10° NNW
Helios 1A 4.5 21:05:40 11° ESE 21:08:38 21° ENE 21:11:46 10° NNE
Cosmos 2369 Rocket 2.4 21:04:35 10° S 21:09:57 47° ESE 21:15:20 10° NNE
OAO 2 Rocket 3.3 21:08:59 10° WNW 21:14:05 85° NNE 21:18:25 14° ESE
Resurs 01 Rocket 1.7 21:10:54 10° S 21:15:19 83° WSW 21:19:46 10° NNW
Delta 168 3.2 21:12:33 10° WSW 21:15:45 41° S 21:18:59 15° ESE
Cosmos 1862 Rocket 3.6 21:13:03 10° N 21:17:32 67° E 21:21:58 10° SSE
Lacrosse 5 rocket 1.3 21:16:12 10° SW 21:19:45 70° NW 21:23:20 10° NNE
Delta 7925 Rocket 4.2 21:17:38 10° SW 21:21:47 31° SSE 21:25:13 16° ESE
Shenzhou-11 Module 4.1 21:21:04 10° NNW 21:23:28 20° NNE 21:25:36 11° ENE
YAOGAN 6 3.8 21:23:55 18° ESE 21:25:46 27° ENE 21:28:56 10° NNE
Cosmos 1346 Rocket 3.3 21:23:04 10° N 21:26:51 41° E 21:29:25 18° SE
Cosmos 1939 Rocket 3.2 21:24:57 15° SSE 21:28:14 49° ENE 21:32:13 10° N
COSMOS 2487 3.7 21:29:01 10° NNW 21:32:22 39° WSW 21:35:41 10° S
Cosmos 1933 3.8 21:29:23 10° NNW 21:33:21 60° W 21:37:17 10° S
Timation 2 Rocket 4.1 21:27:30 10° NNW 21:33:57 85° WSW 21:40:26 11° SSE
Cosmos 2346 Rocket 4.4 21:29:27 10° S 21:35:29 83° E 21:41:33 10° N
ATLAS 5 CENTAUR R/B 4.3 21:34:20 10° NNE 21:37:43 15° NE 21:41:08 10° E
GPS 2-04 Rocket1 4.0 21:35:38 10° WNW 21:39:04 33° N 21:42:02 12° ENE
Aureole 1 4.4 21:36:11 10° SSW 21:39:09 71° WNW 21:42:18 10° NNE
Aureole 3 3.3 21:40:46 33° ESE 21:41:11 35° E 21:43:56 10° NNE
Okean 1-7 4.1 21:37:57 10° NNE 21:41:43 27° E 21:42:46 24° ESE
Aurora 2 Rocket 4.0 21:37:26 10° WSW 21:42:17 28° SSW 21:44:16 20° SSE
H-2A R/B 4.1 21:42:09 12° E 21:43:20 13° ENE 21:45:35 10° NE
ARGOS 4.4 21:47:37 20° E 21:49:09 23° ENE 21:53:15 10° NNE
FUSE 4.2 21:44:05 10° WSW 21:49:12 49° S 21:51:33 29° ESE
Meteor 1-29 2.8 21:46:49 10° NNE 21:50:18 78° ESE 21:52:37 20° S
Hubble Space Telescope 2.4 21:47:19 10° WSW 21:50:26 21° SSW 21:51:34 19° S
ORS 1 (USA 231) 4.2 21:49:00 10° SW 21:51:59 77° SSE 21:52:38 51° ENE
Cosmos 1408 3.0 21:52:26 39° ESE 21:52:54 41° E 21:56:26 10° NNE
Cosmos 1703 Rocket 3.5 21:50:19 10° N 21:54:40 62° E 21:56:29 33° SSE
DNEPR-1 R/B 3.9 21:48:57 10° SSW 21:54:42 88° WNW 21:59:30 10° NNE
SJ-11-01 4.4 21:52:58 18° S 21:56:29 78° WSW 22:01:12 10° NNW
Cosmos 1825 2.2 22:03:11 53° ESE 22:03:35 56° E 22:07:17 10° NNE
Cosmos 1782 3.3 22:01:05 10° N 22:04:50 40° E 22:04:51 40° E
ERS-1 Rocket 3.2 22:03:32 36° ESE 22:05:07 50° ENE 22:09:58 10° N
Cosmos 2082 Rocket 4.5 22:01:58 10° NW 22:05:54 19° W 22:09:50 10° SW
Cosmos 1869 Rocket 3.7 22:03:38 14° SSW 22:07:21 70° W 22:11:42 10° N
Helios 1B rocket 4.0 22:12:23 10° N 22:16:09 36° WNW 22:19:53 10° SW
Mugunghwa Rocket 4.5 22:09:54 10° WSW 22:17:03 56° SSE 22:20:35 33° ESE
Cosmos 2084 3.5 22:14:03 10° NNW 22:17:51 52° ENE 22:17:51 52° ENE
Cosmos 1862 4.1 22:19:33 37° NE 22:19:33 37° NE 22:22:24 10° NNE
MetOp-A 4.1 22:22:13 49° SE 22:23:30 66° ENE 22:28:47 10° N
USA 215 4.2 22:22:28 26° E 22:25:18 37° NE 22:31:12 10° NNW
Lacrosse 4 Rocket 3.1 22:22:41 10° N 22:25:48 22° NE 22:25:48 22° NE
Cosmos 2221 Rocket 3.7 22:25:06 10° N 22:29:32 72° W 22:30:22 55° SSW
Cosmos 1943 Rocket 2.8 22:26:24 10° SW 22:31:52 55° WNW 22:37:20 10° N
Terra 3.9 22:33:08 14° NE 22:33:08 14° NE 22:34:49 10° NNE
Tiangong 2 2.9 22:33:49 10° NW 22:35:46 32° NW 22:35:46 32° NW
Cosmos 2344 3.7 22:31:52 10° SSW 22:39:37 78° WNW 22:47:41 10° NNE
SPOT 1/Viking Rocket 4.0 22:41:31 45° ENE 22:41:31 45° ENE 22:46:11 10° N
NOAA 11 4.4 22:40:47 46° SSW 22:42:19 67° WSW 22:47:47 10° NNW
Cosmos 1340 3.8 22:41:07 10° N 22:43:37 40° N 22:43:37 40° N
SPOT 5 3.0 22:47:25 75° E 22:47:35 76° ENE 22:52:55 10° N
CENTAUR R/B 4.1 22:45:31 10° WSW 22:50:47 33° NW 22:56:40 10° N
Cosmos 1092 Rocket 4.2 22:51:58 52° ENE 22:51:58 52° ENE 22:57:28 10° NNE
Nadezhda 4 Rocket 3.8 22:51:21 65° SSE 22:52:18 82° E 22:58:30 10° N
Cosmos 1269 Rocket 3.9 22:50:17 10° NNW 22:55:22 82° NNE 22:55:22 82° NNE
USA 245 4.4 22:58:23 64° SSW 22:59:19 76° W 23:05:41 10° NNW
Cosmos 1606 4.3 22:56:06 10° NNW 22:58:52 32° WNW 22:58:52 32° WNW
Milstar 3 3.1 22:50:13 10° WSW 23:01:30 75° S 23:03:20 56° ESE
Cosmos 1833 4.3 23:00:42 10° NNW 23:05:59 67° NE 23:05:59 67° NE
H-2A R/B 2.5 23:22:48 59° WNW 23:22:48 59° WNW 23:27:29 10° NNW
ATLAS 5 CENTAUR R/B 2.5 23:16:48 10° NNW 23:22:41 81° NNW 23:22:41 81° NNW
Meteor 1-27 Rocket 4.3 23:20:23 10° NNW 23:25:44 51° W 23:25:44 51° W
ARGOS 4.3 23:29:08 34° W 23:29:08 34° W 23:33:58 10° NNW
